DW7888 Weather Reports


time (UTC)temp
C
wind
direction
speed
KPH
gust
KPH
rain 1hr
cm
rain 24hr
cm
rain mn
cm
humidity
%
barometer
mb
20260504100509 10 355 0.0 0.0 0.00 0.00 0.00 64 1016.3
20260504081524 11 134 3.2 14.5 0.00 0.00 0.00 53 1016.3
20260504081004 11 169 4.8 12.9 0.00 0.00 0.00 53 1016.3
20260504080506 11 195 4.8 14.5 0.00 0.00 0.00 52 1016.3
20260504050509 11 164 1.6 6.4 0.00 0.00 0.00 53 1016.4
20260504045507 11 193 3.2 9.7 0.00 0.00 0.00 53 1016.3
20260504045011 11 193 3.2 9.7 0.00 0.00 0.00 53 1016.3
20260504044537 11 208 3.2 8.0 0.00 0.00 0.00 53 1016.3
20260504044007 11 98 1.6 8.0 0.00 0.00 0.00 53 1016.4
20260504043508 11 178 3.2 8.0 0.00 0.00 0.00 53 1016.4
20260504043033 11 171 3.2 8.0 0.00 0.00 0.00 53 1016.4
20260504042509 11 183 1.6 12.9 0.00 0.00 0.00 54 1016.4
20260504042009 11 162 3.2 12.9 0.00 0.00 0.00 54 1016.4
20260504041529 11 172 4.8 12.9 0.00 0.00 0.00 55 1016.4
20260504041006 11 128 1.6 4.8 0.00 0.00 0.00 56 1016.4
20260504040512 11 161 1.6 8.0 0.00 0.00 0.00 56 1016.3
20260504040013 11 134 1.6 8.0 0.00 0.00 0.00 57 1016.3
20260504035513 11 175 3.2 8.0 0.00 0.00 0.00 55 1016.3
20260504035009 10 163 0.0 4.8 0.00 0.00 0.00 57 1016.4
20260504034512 10 140 1.6 4.8 0.00 0.00 0.00 57 1016.3
20260504034006 10 196 1.6 9.7 0.00 0.00 0.00 56 1016.3
20260504033515 10 159 0.0 9.7 0.00 0.00 0.00 57 1016.4
20260504033016 10 180 0.0 3.2 0.00 0.00 0.00 57 1016.5
20260504032509 10 207 0.0 3.2 0.00 0.00 0.00 57 1016.4
20260504032013 10 145 0.0 4.8 0.00 0.00 0.00 56 1016.4
20260504031515 10 150 0.0 4.8 0.00 0.00 0.00 57 1016.4
20260504031008 10 150 0.0 4.8 0.00 0.00 0.00 59 1016.4
20260504030508 10 133 0.0 4.8 0.00 0.00 0.00 58 1016.4
20260504030016 10 174 1.6 4.8 0.00 0.00 0.00 59 1016.3
20260504025506 10 170 0.0 3.2 0.00 0.00 0.00 59 1016.3
20260504025003 10 184 0.0 3.2 0.00 0.00 0.00 58 1016.4
20260504024505 10 167 0.0 3.2 0.00 0.00 0.00 58 1016.4
20260504024007 10 170 0.0 4.8 0.00 0.00 0.00 58 1016.4
20260504023507 10 140 0.0 4.8 0.00 0.00 0.00 58 1016.4
20260504023004 10 164 0.0 3.2 0.00 0.00 0.00 59 1016.4
20260504022504 10 176 1.6 3.2 0.00 0.00 0.00 60 1016.4
20260504022003 10 113 0.0 3.2 0.00 0.00 0.00 60 1016.4
20260504021504 10 142 0.0 0.0 0.00 0.00 0.00 62 1016.3
20260504021002 10 142 0.0 0.0 0.00 0.00 0.00 63 1016.3
20260504020503 10 142 0.0 0.0 0.00 0.00 0.00 63 1016.3
20260504020008 10 142 0.0 0.0 0.00 0.00 0.00 62 1016.3
20260504015503 10 142 0.0 0.0 0.00 0.00 0.00 63 1016.2
20260504015002 10 142 0.0 0.0 0.00 0.00 0.00 63 1016.1
20260504014507 9 142 0.0 0.0 0.00 0.00 0.00 64 1016.1
20260504014003 10 142 0.0 0.0 0.00 0.00 0.00 63 1016.2
20260504013503 10 142 0.0 0.0 0.00 0.00 0.00 63 1016.2
20260504013009 10 142 0.0 0.0 0.00 0.00 0.00 62 1016.2
20260504012504 10 142 0.0 0.0 0.00 0.00 0.00 61 1016.2
20260504012004 10 142 0.0 0.0 0.00 0.00 0.00 62 1016.1
20260504011509 10 142 0.0 0.0 0.00 0.00 0.00 61 1016.1
20260504011007 10 142 0.0 0.0 0.00 0.00 0.00 60 1016.1
20260504010503 10 142 0.0 0.0 0.00 0.00 0.00 60 1016.1
20260504010009 10 142 0.0 0.0 0.00 0.00 0.00 60 1016.1
20260504005503 11 142 0.0 0.0 0.00 0.00 0.00 59 1016.0
20260504005005 11 142 0.0 0.0 0.00 0.00 0.00 59 1016.1
20260504004511 11 142 0.0 0.0 0.00 0.00 0.00 58 1016.1
20260504004004 11 142 0.0 0.0 0.00 0.00 0.00 58 1016.1
20260504003506 11 142 0.0 1.6 0.00 0.00 0.00 58 1016.0
20260504003007 11 142 0.0 1.6 0.00 0.00 0.00 57 1015.9
20260504002503 11 142 0.0 1.6 0.00 0.00 0.00 57 1015.9
20260504002006 12 142 0.0 1.6 0.00 0.00 0.00 56 1015.8
20260504001511 12 142 0.0 1.6 0.00 0.00 0.00 55 1015.8
20260504001004 12 142 0.0 1.6 0.00 0.00 0.00 54 1015.8
20260504000505 12 142 0.0 1.6 0.00 0.00 0.00 53 1015.8
20260504000014 13 142 0.0 1.6 0.00 0.00 0.00 52 1015.7
20260503235503 13 142 0.0 1.6 0.00 0.00 0.00 51 1015.6
20260503235004 13 142 0.0 1.6 0.00 0.00 0.00 50 1015.6
20260503234512 14 142 0.0 1.6 0.00 0.00 0.00 47 1015.6
20260503234006 14 142 0.0 0.0 0.00 0.00 0.00 44 1015.5
20260503233505 15 142 0.0 0.0 0.00 0.00 0.00 42 1015.5
20260503233009 15 142 0.0 0.0 0.00 0.00 0.00 41 1015.5
20260503232506 15 142 0.0 1.6 0.00 0.00 0.00 41 1015.6
20260503232011 15 142 0.0 1.6 0.00 0.00 0.00 40 1015.6
20260503231514 15 139 0.0 4.8 0.00 0.00 0.00 40 1015.6
20260503231004 15 139 0.0 4.8 0.00 0.00 0.00 38 1015.5
20260503230505 15 139 1.6 4.8 0.00 0.00 0.00 37 1015.4
20260503230014 16 76 0.0 6.4 0.00 0.00 0.00 37 1015.4
20260503225504 16 44 0.0 6.4 0.00 0.00 0.00 37 1015.5
20260503225004 16 24 1.6 6.4 0.00 0.00 0.00 37 1015.6
20260503224515 16 352 0.0 6.4 0.00 0.00 0.00 36 1015.6
20260503224007 16 350 1.6 8.0 0.00 0.00 0.00 36 1015.6
20260503223507 16 321 0.0 8.0 0.00 0.00 0.00 36 1015.6
20260503223008 16 138 1.6 8.0 0.00 0.00 0.00 35 1015.6
20260503222510 16 31 0.0 8.0 0.00 0.00 0.00 34 1015.6
20260503222006 16 318 3.2 8.0 0.00 0.00 0.00 34 1015.6
20260503221510 16 5 0.0 3.2 0.00 0.00 0.00 37 1015.6
20260503221008 16 163 0.0 4.8 0.00 0.00 0.00 35 1015.6
20260503220508 16 321 0.0 4.8 0.00 0.00 0.00 33 1015.7
20260503220009 16 321 0.0 6.4 0.00 0.00 0.00 34 1015.7
20260503215505 16 336 1.6 6.4 0.00 0.00 0.00 35 1015.7
20260503215008 16 200 0.0 12.9 0.00 0.00 0.00 36 1015.8
20260503214509 16 183 0.0 12.9 0.00 0.00 0.00 35 1015.7
20260503214008 16 161 1.6 6.4 0.00 0.00 0.00 33 1015.7
20260503213505 16 125 1.6 6.4 0.00 0.00 0.00 35 1015.7
20260503213025 16 26 0.0 9.7 0.00 0.00 0.00 34 1015.8
20260503212505 16 273 3.2 9.7 0.00 0.00 0.00 33 1015.7
20260503212006 16 156 0.0 9.7 0.00 0.00 0.00 33 1015.6
20260503211518 16 310 4.8 9.7 0.00 0.00 0.00 31 1015.7
20260503211011 16 5 3.2 12.9 0.00 0.00 0.00 32 1015.7
20260503210509 16 348 3.2 12.9 0.00 0.00 0.00 32 1015.8
20260503210014 16 311 4.8 12.9 0.00 0.00 0.00 32 1015.8
20260503205507 16 111 0.0 17.7 0.00 0.00 0.00 34 1015.7
20260503205010 16 360 3.2 17.7 0.00 0.00 0.00 30 1015.8
20260503204515 16 355 4.8 17.7 0.00 0.00 0.00 33 1015.8
20260503204010 16 350 1.6 17.7 0.00 0.00 0.00 32 1015.7
20260503203507 16 27 4.8 14.5 0.00 0.00 0.00 33 1015.8
20260503203016 16 311 0.0 20.9 0.00 0.00 0.00 33 1015.7
20260503202509 16 360 6.4 20.9 0.00 0.00 0.00 31 1016.0
20260503202009 17 338 8.0 19.3 0.00 0.00 0.00 30 1016.0
20260503201527 17 291 1.6 16.1 0.00 0.00 0.00 31 1016.0
20260503201008 16 190 1.6 14.5 0.00 0.00 0.00 33 1016.1
20260503200509 16 360 1.6 14.5 0.00 0.00 0.00 34 1016.0
20260503200027 16 330 6.4 14.5 0.00 0.00 0.00 34 1016.2
20260503195507 16 355 4.8 17.7 0.00 0.00 0.00 33 1016.2
20260503195007 16 28 4.8 17.7 0.00 0.00 0.00 33 1016.4
20260503194527 16 229 0.0 14.5 0.00 0.00 0.00 36 1016.4
20260503194007 16 339 3.2 14.5 0.00 0.00 0.00 34 1016.5
20260503193506 16 277 1.6 9.7 0.00 0.00 0.00 36 1016.4
20260503193020 16 118 3.2 9.7 0.00 0.00 0.00 34 1016.5
20260503192509 16 325 3.2 16.1 0.00 0.00 0.00 35 1016.7
20260503192015 16 341 6.4 16.1 0.00 0.00 0.00 33 1016.6
20260503191522 16 355 3.2 16.1 0.00 0.00 0.00 38 1016.7
20260503191009 15 348 4.8 16.1 0.00 0.00 0.00 35 1016.8
20260503190509 16 27 3.2 16.1 0.00 0.00 0.00 34 1017.1
20260503190023 15 341 3.2 12.9 0.00 0.00 0.00 35 1017.2
20260503185507 15 340 3.2 12.9 0.00 0.00 0.00 35 1017.2
20260503185009 16 355 3.2 16.1 0.00 0.00 0.00 36 1017.3
20260503184526 16 215 3.2 16.1 0.00 0.00 0.00 37 1017.4
20260503184006 15 24 4.8 16.1 0.00 0.00 0.00 35 1017.5
20260503183515 15 277 6.4 12.9 0.00 0.00 0.00 38 1017.3
20260503183027 16 355 1.6 9.7 0.00 0.00 0.00 39 1017.4
20260503182509 16 24 1.6 8.0 0.00 0.00 0.00 36 1017.5
20260503182009 16 315 3.2 9.7 0.00 0.00 0.00 38 1017.4
20260503181535 15 34 0.0 9.7 0.00 0.00 0.00 37 1017.6
20260503181008 15 334 3.2 14.5 0.00 0.00 0.00 37 1017.7
20260503180508 15 26 3.2 14.5 0.00 0.00 0.00 38 1017.6
20260503180024 15 343 6.4 14.5 0.00 0.00 0.00 36 1017.7
20260503175507 15 11 6.4 16.1 0.00 0.00 0.00 37 1017.7
20260503175009 15 86 4.8 16.1 0.00 0.00 0.00 41 1017.7
20260503174504 14 345 3.2 14.5 0.00 0.00 0.00 36 1017.7
20260503174003 15 309 4.8 14.5 0.00 0.00 0.00 37 1017.8
20260503173502 15 340 0.0 12.9 0.00 0.00 0.00 41 1017.7
20260503173013 15 346 4.8 12.9 0.00 0.00 0.00 43 1017.7
20260503172506 14 40 3.2 12.9 0.00 0.00 0.00 40 1017.8
20260503172006 14 9 3.2 12.9 0.00 0.00 0.00 40 1017.9
20260503171504 14 5 4.8 12.9 0.00 0.00 0.00 43 1017.9
20260503171004 14 10 1.6 12.9 0.00 0.00 0.00 45 1017.9
20260503170508 14 5 0.0 14.5 0.00 0.00 0.00 42 1018.1
20260503151010 12 35 1.6 16.1 0.00 0.00 0.00 42 1018.8
20260503150507 12 329 6.4 17.7 0.00 0.00 0.00 42 1018.8
20260503131010 9 348 1.6 17.7 0.00 0.00 0.00 56 1018.8
20260503130503 9 324 1.6 17.7 0.00 0.00 0.00 58 1018.8
20260503110508 3 19 0.0 0.0 0.00 0.00 0.00 87 1017.8